Location: Gro�sch�nbrunn
(49.5760°N, 11.8868°E)
Time: 13:03:12
(UTC+00:00)

Cosmos 372 Rocket - Pass Details

Date: 18 September 2020
Orbit: 739 x 767 km, 74.1° (Epoch: 22 October)

Event Time Altitude Azimuth Distance (km) Brightness Sun altitude
Rises 18:43:55 0° 193° (SSW) 3,223 7.2 -14.4°
Reaches altitude 10° 18:46:17 10° 191° (S) 2,300 6.4 -14.7°
Maximum altitude 18:51:28 68° 110° (ESE) 828 3.9 -15.5°
Drops below altitude 10° 18:56:40 10° 28° (NNE) 2,306 6.4 -16.3°
Sets 18:59:03 0° 26° (NNE) 3,232 7.2 -16.7°
